コワル-リニア彗星

158P/Kowal-LINEAR (2021)

English version
Home page
Updated on August 6, 2019

---------------------------------------------------------------------

・ プロフィール

・ 写真集

・ 軌道要素

Epoch 2021 May 26.0 TT = JDT 2459360.5
T 2021 May 10.90732 TT                                  MPCW
q   4.7991425            (2000.0)            P               Q
n   0.08880152     Peri.  172.15949     +0.61224312     +0.78460892
a   4.9757183      Node   135.52473     -0.73278294     +0.60948436
e   0.0354875      Incl.    8.01692     -0.29696383     +0.11365585
P  11.10
From 567 observations 1979 July 24-2016 May 2, mean residual 0".6.

・ 光度変化

        m1 = 9.0 + 5 logΔ + 10.0 log r

---------------------------------------------------------------------

軌道要素はM.P.E.C. 2016-K18に掲載されたものです。
光度グラフはComet for Windowsで作成したものです。

---------------------------------------------------------------------

Copyright(C) Seiichi Yoshida (comet@aerith.net). All rights reserved.